Weather History for KFLG - March, 2014

Change the Weather History Date:

Friday, March 21, 2014

  Actual Average Record
Temperature  
Mean Temperature 42 °F 38 °F  
Max Temperature 58 °F 52 °F 70 °F (2004)
Min Temperature 26 °F 24 °F 5 °F (1948)
Degree Days  
Heating Degree Days 23 27  
Month to date heating degree days 517 605  
Since 1 July heating degree days 5118 5444  
Cooling Degree Days 0 0  
Month to date cooling degree days 0 0  
Year to date cooling degree days 0 0  
Moisture  
Dew Point 9 °F    
Average Humidity 34    
Maximum Humidity 55    
Minimum Humidity 13    
Precipitation  
Precipitation 0.00 in 0.06 in 1.02 in (1991)
Month to date precipitation 1.14 1.53  
Year to date precipitation 1.74 5.74  
Snow  
Snow 0.00 in 0.60 in 15.40 in (1991)
Month to date snowfall 1.1 15.4  
Since 1 July snowfall 34.6 88.6  
Snow Depth 0.00 in    
Sea Level Pressure  
Sea Level Pressure 29.91 in    
Wind  
Wind Speed 8 mph (WSW)    
Max Wind Speed 24 mph    
Max Gust Speed 33 mph    
Visibility 10 miles    
Events      
T = Trace of Precipitation, MM = Missing Value Source: NWS Daily Summary

Daily Weather History Graph

Daily Weather History Graph

Search for Another Location

Airport or City:

Trip Planner

Search our weather history database for the weather conditions in past years. The results will help you decide how hot, cold, wet, or windy it might be!

Date:

Astronomy

Mar. 21, 2014 Rise Set
Actual Time 6:28 AM MST 6:39 PM MST
Civil Twilight 6:03 AM MST 7:04 PM MST
Nautical Twilight 5:33 AM MST 7:34 PM MST
Astronomical Twilight 5:04 AM MST 8:04 PM MST
Moon 11:52 PM MST (3/21) 9:33 AM MST (3/21)
Length of Visible Light 13h 01m
Length of Day
12h 10m
Waning Gibbous, 74% of the Moon is Illuminated
Mar 21
Waning Gibbous
Mar 23
Last Quarter
Mar 30
New
Apr 7
First Quarter
Apr 15
Full

Hourly Weather History & Observations

Time (MST) Temp. Windchill Dew Point Humidity Pressure Visibility Wind Dir Wind Speed Gust Speed Precip Events Conditions
12:57 AM 28.0 °F - 12.0 °F 51% 29.92 in 10.0 mi Calm Calm - N/A   Clear
1:57 AM 27.0 °F 21.6 °F 12.0 °F 53% 29.92 in 10.0 mi West 4.6 mph - N/A   Clear
2:57 AM 30.0 °F 25.2 °F 9.0 °F 41% 29.89 in 10.0 mi WSW 4.6 mph - N/A   Clear
3:57 AM 33.1 °F 28.7 °F 7.0 °F 34% 29.86 in 10.0 mi WNW 4.6 mph - N/A   Clear
4:57 AM 30.0 °F 26.5 °F 8.1 °F 40% 29.87 in 10.0 mi West 3.5 mph - N/A   Clear
5:57 AM 28.0 °F - 7.0 °F 41% 29.91 in 10.0 mi Calm Calm - N/A   Clear
6:57 AM 26.1 °F - 10.0 °F 51% 29.96 in 10.0 mi Calm Calm - N/A   Clear
7:57 AM 44.1 °F 42.5 °F 6.1 °F 21% 29.91 in 10.0 mi WNW 3.5 mph - N/A   Clear
9:57 AM 52.0 °F - 6.1 °F 16% 29.93 in 10.0 mi SW 13.8 mph - N/A   Clear
10:57 AM 53.1 °F - 5.0 °F 14% 29.92 in 10.0 mi SW 13.8 mph - N/A   Clear
11:57 AM 54.0 °F - 5.0 °F 14% 29.91 in 10.0 mi WSW 10.4 mph 18.4 mph N/A   Clear
12:57 PM 55.9 °F - 8.1 °F 15% 29.92 in 10.0 mi SW 18.4 mph 25.3 mph N/A   Clear
1:57 PM 55.9 °F - 8.1 °F 15% 29.90 in 10.0 mi West 15.0 mph 24.2 mph N/A   Clear
2:57 PM 57.0 °F - 8.1 °F 14% 29.87 in 10.0 mi SW 17.3 mph 24.2 mph N/A   Clear
3:57 PM 57.0 °F - 8.1 °F 14% 29.86 in 10.0 mi SW 17.3 mph 27.6 mph N/A   Clear
4:57 PM 55.0 °F - 9.0 °F 16% 29.88 in 10.0 mi SW 12.7 mph 23.0 mph N/A   Clear
5:57 PM 52.0 °F - 9.0 °F 18% 29.90 in 10.0 mi SSW 15.0 mph - N/A   Clear
6:57 PM 46.9 °F - 10.9 °F 23% 29.94 in 10.0 mi SSW 11.5 mph - N/A   Clear
7:57 PM 41.0 °F 35.8 °F 12.0 °F 31% 29.90 in 10.0 mi SW 8.1 mph - N/A   Clear
8:57 PM 37.9 °F 34.4 °F 12.0 °F 35% 29.92 in 10.0 mi SSW 4.6 mph - N/A   Clear
9:57 PM 34.0 °F - 12.0 °F 40% 29.93 in 10.0 mi Calm Calm - N/A   Clear
10:57 PM 30.0 °F - 10.9 °F 45% 29.93 in 10.0 mi Calm Calm - N/A   Clear
11:57 PM 27.0 °F - 10.9 °F 51% 29.93 in 10.0 mi Calm Calm - N/A   Clear